Location: ??????
(56.0120°N, 39.1740°E)
Time: 06:08:56
(UTC+00:00)

SJ 16-02 - Pass Details

Date: 14 April 2026
Orbit: 582 x 592 km, 75.0° (Epoch: 10 May)

Event Time Altitude Azimuth Distance (km) Brightness Sun altitude
Rises 20:36:39 0° 334° (NNW) 2,834 6.1 -23.6°
Reaches altitude 10° 20:38:53 10° 336° (NNW) 1,927 4.9 -23.7°
Enters shadow 20:43:10 76° 61° (ENE) 612 1.2 -23.8°
